Tracking 19219 objects as of 19-Jul-2018
HD Live streaming from Space Station
objects crossing your sky now

FENGYUN 1C DEB

Track FENGYUN 1C DEB now!
10-day predictions


NORAD ID: 30136
Int'l Code: 1999-025SR
Perigee: 830.5 km
Apogee: 1,023.9 km
Inclination: 98.5 °
Period: 103.4 minutes
Semi major axis: 7298 km
RCS: 0.0137 m2 (small)
Launch date: May 10, 1999
Source: People's Republic of China (PRC)
Launch site: Taiyaun Space Center, China (TSC)

Note: This is SATELLITE DEBRIS
aabbcc
Your satellite tracking list
Your tracking list is empty




NASA's NSSDC Master Catalog

Two Line Element Set (TLE):
1 30136U 99025SR  18199.40110161 +.00000039 +00000-0 +57132-4 0  9994
2 30136 098.5479 267.5046 0132451 006.7359 051.6441 13.92449699584322
Source of the keplerian elements: AFSPC